• In Hungary
  • List of Countries
  • For 7 days
  • Water Temperature
  • Satellite Maps
  • Weather Map
  • News
  • Weather Widgets
  • user-avatar
    Login

    Hourly Weather Prutz

    Today, 22 September, Friday

    Time Temperature Precipitation Wind Pressure Humidity
    00:00 +4°C° 0 mm 1 mps 634 mmHg 71%
    01:00 +5°C° 0 mm 1 mps 634 mmHg 69%
    02:00 +5°C° 0 mm 1 mps 634 mmHg 68%
    03:00 +5°C° 0 mm 1 mps 634 mmHg 67%
    04:00 +5°C° 0 mm 1 mps 634 mmHg 66%
    05:00 +5°C° 0 mm 1 mps 634 mmHg 65%
    06:00 +5°C° 0 mm 1 mps 635 mmHg 64%
    07:00 +6°C° 0 mm 1 mps 635 mmHg 63%
    08:00 +8°C° 0 mm 1 mps 636 mmHg 59%
    09:00 +11°C° 0 mm 1 mps 636 mmHg 56%
    10:00 +14°C° 0 mm 1 mps 637 mmHg 52%
    11:00 +14°C° 0 mm 1 mps 637 mmHg 52%
    12:00 +15°C° 0 mm 1 mps 638 mmHg 52%
    13:00 +15°C° 0 mm 2 mps 638 mmHg 52%
    14:00 +15°C° 0.1 mm 2 mps 638 mmHg 55%
    15:00 +15°C° 0.1 mm 2 mps 637 mmHg 58%
    16:00 +14°C° 0.1 mm 2 mps 637 mmHg 61%
    17:00 +12°C° 0 mm 1 mps 637 mmHg 70%
    18:00 +10°C° 0 mm 1 mps 636 mmHg 79%
    19:00 +7°C° 0 mm 1 mps 636 mmHg 88%
    20:00 +7°C° 0 mm 1 mps 636 mmHg 88%
    21:00 +6°C° 0 mm 1 mps 636 mmHg 89%
    22:00 +6°C° 0 mm 1 mps 636 mmHg 89%
    23:00 +6°C° 0 mm 1 mps 636 mmHg 88%

    Tomorrow, 23 September, Saturday

    Time Temperature Precipitation Wind Pressure Humidity
    00:00 +6°C° 0 mm 1 mps 636 mmHg 87%
    01:00 +5°C° 0 mm 1 mps 636 mmHg 85%
    02:00 +5°C° 0 mm 1 mps 636 mmHg 84%
    03:00 +5°C° 0 mm 1 mps 636 mmHg 83%
    04:00 +5°C° 0 mm 1 mps 636 mmHg 82%
    05:00 +6°C° 0 mm 1 mps 636 mmHg 81%
    06:00 +6°C° 0 mm 1 mps 636 mmHg 79%
    07:00 +7°C° 0 mm 1 mps 636 mmHg 78%
    08:00 +9°C° 0 mm 1 mps 637 mmHg 72%
    09:00 +11°C° 0 mm 1 mps 637 mmHg 65%
    10:00 +14°C° 0 mm 1 mps 638 mmHg 59%
    11:00 +14°C° 0.1 mm 1 mps 638 mmHg 59%
    12:00 +15°C° 0.1 mm 1 mps 638 mmHg 59%
    13:00 +15°C° 0.1 mm 2 mps 638 mmHg 58%
    14:00 +14°C° 0.7 mm 2 mps 637 mmHg 64%
    15:00 +14°C° 0.7 mm 1 mps 637 mmHg 70%
    16:00 +13°C° 0.7 mm 1 mps 636 mmHg 76%
    17:00 +11°C° 0.5 mm 1 mps 636 mmHg 82%
    18:00 +10°C° 0.5 mm 1 mps 635 mmHg 88%
    19:00 +7°C° 0.5 mm 0 mps 635 mmHg 94%
    20:00 +8°C° 0.3 mm 1 mps 635 mmHg 94%
    21:00 +8°C° 0.3 mm 1 mps 635 mmHg 94%
    22:00 +8°C° 0.3 mm 1 mps 635 mmHg 94%
    23:00 +8°C° 0.3 mm 1 mps 635 mmHg 94%

    Day after tomorrow, 24 September, Sunday

    Time Temperature Precipitation Wind Pressure Humidity
    00:00 +7°C° 0.3 mm 1 mps 635 mmHg 94%
    01:00 +7°C° 0.3 mm 1 mps 635 mmHg 94%
    02:00 +7°C° 0.5 mm 1 mps 635 mmHg 94%
    03:00 +7°C° 0.5 mm 1 mps 635 mmHg 94%
    04:00 +7°C° 0.5 mm 1 mps 634 mmHg 94%
    05:00 +7°C° 0.1 mm 1 mps 634 mmHg 94%
    06:00 +7°C° 0.1 mm 1 mps 634 mmHg 94%
    07:00 +6°C° 0.1 mm 1 mps 635 mmHg 94%
    08:00 +8°C° 0.1 mm 1 mps 635 mmHg 90%
    09:00 +9°C° 0.1 mm 1 mps 635 mmHg 85%
    10:00 +9°C° 0.1 mm 2 mps 636 mmHg 80%
    11:00 +10°C° 0.2 mm 2 mps 636 mmHg 76%
    12:00 +12°C° 0.2 mm 2 mps 636 mmHg 72%
    13:00 +12°C° 0.2 mm 2 mps 636 mmHg 68%
    14:00 +12°C° 0.2 mm 2 mps 636 mmHg 69%
    15:00 +12°C° 0.2 mm 2 mps 635 mmHg 71%
    16:00 +10°C° 0.2 mm 2 mps 635 mmHg 72%
    17:00 +9°C° 0.3 mm 2 mps 635 mmHg 78%
    18:00 +9°C° 0.3 mm 1 mps 635 mmHg 84%
    19:00 +7°C° 0.3 mm 1 mps 635 mmHg 90%
    20:00 +7°C° 0.3 mm 1 mps 635 mmHg 91%
    21:00 +7°C° 0.3 mm 1 mps 635 mmHg 92%
    22:00 +7°C° 0.3 mm 1 mps 635 mmHg 93%
    23:00 +7°C° 0.4 mm 1 mps 635 mmHg 93%

    25 September, Monday

    Time Temperature Precipitation Wind Pressure Humidity
    00:00 +6°C° 0.4 mm 1 mps 635 mmHg 93%
    01:00 +6°C° 0.4 mm 1 mps 634 mmHg 93%
    02:00 +6°C° 0.2 mm 1 mps 634 mmHg 93%
    03:00 +6°C° 0.2 mm 1 mps 634 mmHg 94%
    04:00 +5°C° 0.2 mm 1 mps 634 mmHg 94%
    05:00 +5°C° 0 mm 1 mps 634 mmHg 93%
    06:00 +5°C° 0 mm 1 mps 634 mmHg 92%
    07:00 +5°C° 0 mm 1 mps 634 mmHg 92%
    08:00 +7°C° 0 mm 1 mps 634 mmHg 83%
    09:00 +8°C° 0 mm 0 mps 635 mmHg 75%
    10:00 +10°C° 0 mm 0 mps 636 mmHg 67%
    11:00 +11°C° 0 mm 0 mps 636 mmHg 63%
    12:00 +13°C° 0 mm 1 mps 636 mmHg 59%
    13:00 +14°C° 0 mm 1 mps 636 mmHg 55%
    14:00 +14°C° 0.1 mm 1 mps 636 mmHg 58%
    15:00 +13°C° 0.1 mm 1 mps 635 mmHg 62%
    16:00 +13°C° 0.1 mm 1 mps 635 mmHg 65%
    17:00 +11°C° 0.1 mm 1 mps 635 mmHg 73%
    18:00 +9°C° 0.1 mm 1 mps 635 mmHg 81%
    19:00 +6°C° 0.1 mm 0 mps 634 mmHg 88%
    20:00 +7°C° 0.1 mm 1 mps 635 mmHg 90%
    21:00 +7°C° 0.1 mm 1 mps 635 mmHg 91%
    22:00 +6°C° 0.1 mm 1 mps 635 mmHg 92%
    23:00 +6°C° 0.1 mm 1 mps 635 mmHg 92%

    26 September, Tuesday

    Time Temperature Precipitation Wind Pressure Humidity
    00:00 +6°C° 0.1 mm 1 mps 635 mmHg 92%
    01:00 +6°C° 0.1 mm 1 mps 635 mmHg 92%
    02:00 +5°C° 0 mm 1 mps 635 mmHg 92%
    03:00 +5°C° 0 mm 1 mps 634 mmHg 92%
    04:00 +5°C° 0 mm 1 mps 634 mmHg 92%
    05:00 +5°C° 0 mm 1 mps 635 mmHg 92%
    06:00 +6°C° 0 mm 1 mps 635 mmHg 91%
    07:00 +6°C° 0 mm 1 mps 635 mmHg 90%
    08:00 +8°C° 0 mm 1 mps 636 mmHg 82%
    09:00 +10°C° 0 mm 1 mps 636 mmHg 75%
    10:00 +12°C° 0 mm 1 mps 637 mmHg 67%
    11:00 +13°C° 0.1 mm 1 mps 637 mmHg 66%
    12:00 +13°C° 0.1 mm 1 mps 637 mmHg 65%
    13:00 +13°C° 0.1 mm 1 mps 637 mmHg 64%
    14:00 +13°C° 0.4 mm 1 mps 636 mmHg 68%
    15:00 +13°C° 0.4 mm 1 mps 636 mmHg 71%
    16:00 +12°C° 0.4 mm 1 mps 636 mmHg 74%
    17:00 +11°C° 0.3 mm 1 mps 636 mmHg 81%
    18:00 +9°C° 0.3 mm 1 mps 636 mmHg 87%
    19:00 +7°C° 0.3 mm 0 mps 635 mmHg 93%
    20:00 +6°C° 0.1 mm 0 mps 635 mmHg 93%
    21:00 +6°C° 0.1 mm 0 mps 636 mmHg 93%
    22:00 +6°C° 0.1 mm 0 mps 636 mmHg 93%
    23:00 +6°C° 0 mm 1 mps 636 mmHg 93%

    27 September, Wednesday

    Time Temperature Precipitation Wind Pressure Humidity
    00:00 +6°C° 0 mm 1 mps 636 mmHg 92%
    01:00 +6°C° 0 mm 1 mps 636 mmHg 91%
    02:00 +6°C° 0 mm 1 mps 636 mmHg 91%
    03:00 +5°C° 0 mm 1 mps 636 mmHg 91%
    04:00 +4°C° 0 mm 0 mps 635 mmHg 91%
    05:00 +5°C° 0 mm 1 mps 636 mmHg 91%
    06:00 +6°C° 0 mm 1 mps 636 mmHg 90%
    07:00 +6°C° 0 mm 1 mps 636 mmHg 90%
    08:00 +8°C° 0 mm 1 mps 637 mmHg 82%
    09:00 +10°C° 0 mm 1 mps 638 mmHg 75%
    10:00 +13°C° 0 mm 1 mps 639 mmHg 68%
    11:00 +13°C° 0 mm 1 mps 639 mmHg 64%
    12:00 +14°C° 0 mm 1 mps 639 mmHg 61%
    13:00 +15°C° 0 mm 1 mps 639 mmHg 58%
    14:00 +14°C° 0.2 mm 1 mps 639 mmHg 62%
    15:00 +14°C° 0.2 mm 1 mps 639 mmHg 65%
    16:00 +14°C° 0.2 mm 1 mps 638 mmHg 68%
    17:00 +12°C° 0.1 mm 1 mps 638 mmHg 76%
    18:00 +9°C° 0.1 mm 1 mps 637 mmHg 84%
    19:00 +6°C° 0.1 mm 0 mps 637 mmHg 93%
    20:00 +7°C° 0 mm 1 mps 637 mmHg 92%
    21:00 +7°C° 0 mm 1 mps 637 mmHg 92%
    22:00 +6°C° 0 mm 1 mps 637 mmHg 92%
    23:00 +6°C° 0 mm 1 mps 637 mmHg 91%
    Show more